FW6664 Weather Reports


Display with metric or nautical units.
time (UTC)temp
F
wind
direction
speed
MPH
gust
MPH
rain 1hr
in
rain 24hr
in
rain mn
in
humidity
%
barometer
mb
20200331172624 62 30 0.0 0.0 0.00 0.00 0.00 56 1017.2
20200331172511 62 30 0.0 0.0 0.00 1.34 0.00 57 1017.1
20200331172121 62 30 0.0 0.0 0.00 0.00 0.00 57 1017.1
20200331171619 62 30 1.0 0.0 0.00 0.00 0.00 57 1017.1
20200331171124 61 30 1.0 0.0 0.00 0.00 0.00 59 1017.2
20200331171015 61 30 0.0 1.0 1.34 1.34 0.00 60 1017.3
20200331170624 61 30 0.0 0.0 0.00 0.00 0.00 61 1017.2
20200331170122 61 30 0.0 0.0 0.00 0.00 0.00 60 1017.3
20200331170036 61 30 0.0 0.0 1.34 1.34 0.00 60 1017.3
20200331165618 61 30 0.0 0.0 0.00 0.00 0.00 61 1017.4
20200331165520 60 30 0.0 0.0 1.34 1.34 0.00 61 1017.3
20200331165136 60 30 0.0 0.0 0.00 0.00 0.00 62 1017.4
20200331164622 60 33 1.0 0.0 0.00 0.00 0.00 62 1017.5
20200331164518 60 33 0.0 0.0 1.34 1.34 0.00 63 1017.4
20200331164126 60 33 0.0 0.0 0.00 0.00 0.00 63 1017.4
20200331164030 59 33 0.0 0.0 1.34 1.34 0.00 63 1017.4
20200331163626 59 34 0.0 0.0 0.00 0.00 0.00 63 1017.5
20200331163155 59 50 0.0 0.0 0.00 0.00 0.00 64 1017.5
20200331162612 59 50 2.0 0.0 0.00 0.00 0.00 63 1017.5
20200331162521 59 50 1.0 0.0 1.34 1.34 0.00 63 1017.5
20200331162114 59 45 0.0 0.0 0.00 0.00 0.00 63 1017.6
20200331072644 55 16 0.0 0.0 0.00 0.00 0.00 77 1020.5
20200331072535 54 16 0.0 0.0 0.00 1.34 0.00 77 1020.4
20200331072125 55 16 0.0 0.0 0.00 0.00 0.00 76 1020.4
20200331071622 55 16 0.0 0.0 0.00 0.00 0.00 76 1020.5
20200331071553 55 16 0.0 1.0 0.00 1.34 0.00 76 1020.5
20200331071120 56 14 2.0 0.0 0.00 0.00 0.00 75 1020.6
20200331070630 56 344 1.0 0.0 0.00 0.00 0.00 75 1020.5
20200331070518 56 344 0.0 0.0 0.00 1.34 0.00 75 1020.5
20200331070119 56 344 0.0 0.0 0.00 0.00 0.00 74 1020.7
20200331070002 56 344 0.0 0.0 0.00 1.34 0.00 74 1020.7
20200331065610 57 344 2.0 0.0 0.00 0.00 0.00 74 1020.8
20200331065122 56 344 2.0 0.0 0.00 0.00 0.00 74 1020.7
20200331065013 56 344 2.0 2.0 0.00 1.34 0.00 74 1020.6
20200331064613 56 344 2.0 0.0 0.00 0.00 0.00 75 1020.8
20200331064115 56 344 2.0 0.0 0.00 0.00 0.00 74 1020.8
20200331063630 56 344 2.0 0.0 0.00 0.00 0.00 74 1020.8
20200331063531 56 344 1.0 1.0 0.00 1.34 0.00 75 1020.8
20200331063126 56 344 2.0 0.0 0.00 0.00 0.00 76 1020.8
20200331062616 55 344 1.0 0.0 0.00 0.00 0.00 76 1020.9
20200331062115 55 344 1.0 0.0 0.00 0.00 0.00 77 1021.0
20200331062006 55 344 2.0 2.0 0.00 1.34 0.00 77 1021.1
20200331061624 55 11 1.0 0.0 0.00 0.00 0.00 77 1020.9
20200331061118 55 11 1.0 0.0 0.00 0.00 0.00 77 1021.0
20200331061017 55 11 0.0 2.0 0.00 1.34 0.00 77 1020.8
20200331060626 55 11 1.0 0.0 0.00 0.00 0.00 77 1021.0
20200331060538 55 11 0.0 2.0 0.00 1.34 0.00 77 1020.9
20200331060123 55 9 2.0 0.0 0.00 0.00 0.00 77 1021.1
20200331060002 55 7 1.0 2.0 0.00 1.34 0.00 77 1021.1
20200331055628 55 11 2.0 0.0 0.00 0.00 0.00 78 1021.0
20200331055529 54 10 0.0 1.0 0.00 1.34 0.00 78 1021.0
20200331055124 55 0 1.0 0.0 0.00 0.00 0.00 78 1021.1
20200331054610 55 359 0.0 0.0 0.00 0.00 0.00 77 1021.2
20200331054546 54 359 0.0 0.0 0.00 1.34 0.00 77 1021.1
20200331054133 55 359 0.0 0.0 0.00 0.00 0.00 76 1021.3
20200331054002 55 359 0.0 0.0 0.00 1.34 0.00 76 1021.4
20200331053619 55 359 0.0 0.0 0.00 0.00 0.00 76 1021.4
20200331053111 56 358 0.0 0.0 0.00 0.00 0.00 75 1021.5
20200331053019 55 357 0.0 1.0 0.00 1.34 0.00 75 1021.4
20200331052620 56 330 0.0 0.0 0.00 0.00 0.00 74 1021.4
20200331052124 56 330 0.0 0.0 0.00 0.00 0.00 74 1021.4
20200331052033 56 330 1.0 1.0 0.00 1.34 0.00 74 1021.5
20200331051611 56 330 1.0 0.0 0.00 0.00 0.00 74 1021.5
20200331051513 56 330 1.0 1.0 0.00 1.34 0.00 74 1021.5
20200331051121 56 330 1.0 0.0 0.00 0.00 0.00 74 1021.4
20200331050623 56 330 2.0 0.0 0.00 0.00 0.00 74 1021.6
20200331050536 56 330 1.0 2.0 0.00 1.34 0.00 74 1021.5
20200331050128 56 330 2.0 0.0 0.00 0.00 0.00 74 1021.4
20200331050008 56 330 1.0 1.0 0.00 1.34 0.00 74 1021.5
20200331045619 56 330 2.0 0.0 0.00 0.00 0.00 73 1021.4
20200331045131 56 330 2.0 0.0 0.00 0.00 0.00 73 1021.4
20200331045032 56 330 0.0 2.0 0.00 1.34 0.00 73 1021.6
20200331044617 56 330 2.0 0.0 0.00 0.00 0.00 74 1021.4
20200331044511 56 330 1.0 2.0 0.00 1.34 0.00 73 1021.5
20200331044121 56 330 2.0 0.0 0.00 0.00 0.00 73 1021.6
20200331043614 57 330 1.0 0.0 0.00 0.00 0.00 73 1021.6
20200331043120 57 330 2.0 0.0 0.00 0.00 0.00 73 1021.6
20200331043021 56 330 1.0 1.0 0.00 1.34 0.00 73 1021.6
20200331042632 57 330 1.0 0.0 0.00 0.00 0.00 73 1021.5
20200331042536 56 330 0.0 0.0 0.00 1.34 0.00 73 1021.6
20200331042118 57 330 1.0 0.0 0.00 0.00 0.00 73 1021.6
20200331042020 56 330 0.0 2.0 0.00 1.34 0.00 73 1021.5
20200331041610 57 330 1.0 0.0 0.00 0.00 0.00 73 1021.5
20200331041509 56 330 0.0 2.0 0.00 1.34 0.00 73 1021.5
20200331041126 57 330 2.0 0.0 0.00 0.00 0.00 73 1021.5
20200331041030 57 330 1.0 2.0 0.00 1.34 0.00 73 1021.5
20200331040618 57 330 1.0 0.0 0.00 0.00 0.00 73 1021.4
20200331040513 57 330 2.0 3.0 0.00 1.34 0.00 73 1021.3
20200331040121 57 338 3.0 0.0 0.00 0.00 0.00 73 1021.5
20200331035610 57 340 2.0 0.0 0.00 0.00 0.00 73 1021.5
20200331035116 57 317 3.0 0.0 0.00 0.00 0.00 73 1021.5
20200331035010 57 327 3.0 4.0 0.00 1.34 0.00 73 1021.6
20200331034628 57 339 4.0 0.0 0.00 0.00 0.00 73 1021.6
20200331034536 57 317 3.0 4.0 0.00 1.34 0.00 73 1021.6
20200331034116 57 322 3.0 0.0 0.00 0.00 0.00 73 1021.5
20200331034011 57 319 3.0 4.0 0.00 1.34 0.00 73 1021.5
20200331033629 57 331 4.0 0.0 0.00 0.00 0.00 73 1021.4
20200331033534 57 329 2.0 2.0 0.00 1.34 0.00 73 1021.4
20200331033117 57 319 1.0 0.0 0.00 0.00 0.00 73 1021.3
20200331033018 57 319 1.0 2.0 0.00 1.34 0.00 73 1021.3
20200331032623 57 318 3.0 0.0 0.00 0.00 0.00 73 1021.5
20200331032116 57 322 3.0 0.0 0.00 0.00 0.00 73 1021.5
20200331031620 57 301 4.0 0.0 0.00 0.00 0.00 72 1021.4
20200331031540 57 301 3.0 3.0 0.00 1.34 0.00 72 1021.4
20200331031137 57 312 4.0 0.0 0.00 0.00 0.00 72 1021.5
20200331031035 57 312 3.0 4.0 0.00 1.34 0.00 72 1021.5
20200331030615 58 299 4.0 0.0 0.00 0.00 0.00 71 1021.3
20200331030510 57 301 2.0 5.0 0.00 1.34 0.00 71 1021.3
20200331030211 57 294 4.0 5.0 0.00 1.34 0.00 70 1021.3
20200331030129 58 293 4.0 0.0 0.00 0.00 0.00 71 1021.4
20200331025626 58 304 4.0 0.0 0.00 0.00 0.00 69 1021.3
20200331025114 58 306 5.0 0.0 0.00 0.00 0.00 69 1021.2
20200331024619 58 295 5.0 0.0 0.00 0.00 0.00 68 1021.2
20200331024552 58 297 4.0 5.0 0.00 1.34 0.00 68 1021.2
20200331024125 58 299 4.0 0.0 0.00 0.00 0.00 67 1021.1
20200331024038 58 299 5.0 6.0 0.00 1.34 0.00 67 1021.2
20200331023616 59 297 6.0 0.0 0.00 0.00 0.00 66 1021.0
20200331023520 58 294 4.0 6.0 0.00 1.34 0.00 66 1021.1
20200331023116 59 296 5.0 0.0 0.00 0.00 0.00 66 1021.0
20200331022621 59 290 5.0 0.0 0.00 0.00 0.00 65 1021.0
20200331022532 58 291 3.0 6.0 0.00 1.34 0.00 65 1021.0
20200331022128 59 305 7.0 0.0 0.00 0.00 0.00 64 1020.9
20200331022012 59 296 5.0 6.0 0.00 1.34 0.00 65 1021.0
20200331021619 60 301 6.0 0.0 0.00 0.00 0.00 64 1021.0
20200331021124 60 295 5.0 0.0 0.00 0.00 0.00 63 1021.0
20200331021039 59 303 4.0 5.0 0.00 1.34 0.00 63 1021.1
20200331020626 60 293 5.0 0.0 0.00 0.00 0.00 62 1021.2
20200331020531 60 306 4.0 6.0 0.00 1.34 0.00 62 1021.1
20200331020100 61 285 7.0 0.0 0.00 0.00 0.00 60 1021.1
20200331015619 61 309 7.0 0.0 0.00 0.00 0.00 61 1021.0
20200331015131 61 300 8.0 0.0 0.00 0.00 0.00 61 1021.0
20200331015037 61 292 6.0 6.0 0.00 1.34 0.00 61 1021.0
20200331014619 61 304 7.0 0.0 0.00 0.00 0.00 61 1020.9
20200331014514 61 289 5.0 6.0 0.00 1.34 0.00 61 1020.9
20200331014124 62 297 7.0 0.0 0.00 0.00 0.00 61 1020.9
20200331013614 62 296 6.0 0.0 0.00 0.00 0.00 59 1020.9
20200331013118 63 316 6.0 0.0 0.00 0.00 0.00 58 1020.8
20200331013024 62 319 7.0 9.0 0.00 1.34 0.00 58 1020.9
20200331012629 63 299 6.0 0.0 0.00 0.00 0.00 56 1020.8
20200331012123 63 277 7.0 0.0 0.00 0.00 0.00 55 1020.7
20200331011633 64 293 7.0 0.0 0.00 0.00 0.00 53 1020.7
20200331011555 63 284 6.0 9.0 0.00 1.34 0.00 53 1020.7
20200331011119 64 290 9.0 0.0 0.00 0.00 0.00 52 1020.7
20200331011013 64 297 8.0 9.0 0.00 1.34 0.00 52 1020.5
20200331010622 64 291 7.0 0.0 0.00 0.00 0.00 53 1020.6
20200331010130 65 300 8.0 0.0 0.00 0.00 0.00 53 1020.5
20200331010111 64 299 6.0 7.0 0.00 1.34 0.00 54 1020.5
20200331005618 65 314 8.0 0.0 0.00 0.00 0.00 53 1020.4
20200331005510 64 303 6.0 8.0 0.00 1.34 0.00 53 1020.4
20200331005127 65 291 6.0 0.0 0.00 0.00 0.00 54 1020.4
20200331005032 64 300 7.0 8.0 0.00 1.34 0.00 54 1020.4
20200331004616 65 299 9.0 0.0 0.00 0.00 0.00 54 1020.3
20200331004523 64 306 6.0 9.0 0.00 1.34 0.00 55 1020.1
20200331004115 65 300 7.0 0.0 0.00 0.00 0.00 55 1020.2
20200331003629 66 292 8.0 0.0 0.00 0.00 0.00 54 1020.2
20200331003516 65 295 7.0 9.0 0.00 1.34 0.00 53 1020.1
20200331003112 66 299 9.0 0.0 0.00 0.00 0.00 53 1020.2
20200331002617 66 305 11.0 0.0 0.00 0.00 0.00 53 1020.2
20200331002521 65 314 6.0 8.0 0.00 1.34 0.00 52 1020.1
20200331002137 66 318 8.0 0.0 0.00 0.00 0.00 51 1020.0
20200331001617 67 302 10.0 0.0 0.00 0.00 0.00 50 1020.1
20200331001537 66 294 6.0 7.0 0.00 1.34 0.00 50 1020.0
20200331001125 67 317 8.0 0.0 0.00 0.00 0.00 50 1020.0
20200331001052 67 292 6.0 10.0 0.00 1.34 0.00 50 1020.0
20200331000615 67 302 6.0 0.0 0.00 0.00 0.00 52 1019.9
20200331000514 67 279 6.0 10.0 0.00 1.34 0.00 51 1020.1
20200331000119 68 299 8.0 0.0 0.00 0.00 0.00 50 1020.1
20200330235633 68 286 9.0 0.0 0.00 0.00 0.00 50 1020.3
20200330235545 67 268 6.0 12.0 0.00 1.34 0.00 49 1020.2
20200330235119 68 288 8.0 0.0 0.00 0.00 0.00 48 1020.2
20200330235012 68 297 9.0 12.0 0.00 1.34 0.00 48 1020.4
20200330234636 68 292 6.0 8.0 0.00 1.34 0.00 48 1020.4
20200330234632 68 272 6.0 0.0 0.00 0.00 0.00 48 1020.5
20200330234117 69 292 12.0 0.0 0.00 0.00 0.00 47 1020.5
20200330234039 68 273 5.0 7.0 0.00 1.34 0.00 48 1020.5
20200330233613 69 296 7.0 0.0 0.00 0.00 0.00 47 1020.4
20200330233127 69 296 14.0 0.0 0.00 0.00 0.00 47 1020.5
20200330232613 69 288 10.0 0.0 0.00 0.00 0.00 45 1020.5
20200330232121 69 292 11.0 0.0 0.00 0.00 0.00 46 1020.5
20200330232012 69 279 7.0 10.0 0.00 1.34 0.00 46 1020.6
20200330231613 69 284 9.0 0.0 0.00 0.00 0.00 45 1020.5
20200330231128 70 267 9.0 0.0 0.00 0.00 0.00 45 1020.4
20200330231020 69 299 8.0 12.0 0.00 1.34 0.00 46 1020.5
20200330230622 69 302 6.0 0.0 0.00 0.00 0.00 46 1020.3
20200330230114 70 284 8.0 0.0 0.00 0.00 0.00 45 1020.1
20200330230002 69 301 10.0 12.0 0.00 1.34 0.00 45 1020.3
20200330225615 70 305 13.0 0.0 0.00 0.00 0.00 45 1020.1
20200330225124 70 285 10.0 0.0 0.00 0.00 0.00 44 1020.1
20200330225028 70 291 8.0 11.0 0.00 1.34 0.00 43 1020.3
20200330224617 70 308 8.0 0.0 0.00 0.00 0.00 43 1020.1
20200330224108 70 260 8.0 0.0 0.00 0.00 0.00 44 1020.2
20200330223622 70 300 13.0 0.0 0.00 0.00 0.00 44 1020.2
20200330223513 70 295 6.0 9.0 0.00 1.34 0.00 44 1020.1
20200330223134 70 293 11.0 0.0 0.00 0.00 0.00 45 1020.2
20200330223120 70 296 7.0 8.0 0.00 1.34 0.00 44 1020.1
20200330222621 70 308 10.0 0.0 0.00 0.00 0.00 45 1020.1
20200330222511 70 298 5.0 7.0 0.00 1.34 0.00 44 1020.1
20200330222111 70 292 7.0 0.0 0.00 0.00 0.00 45 1020.3
20200330221624 70 280 9.0 0.0 0.00 0.00 0.00 45 1020.3
20200330221511 70 288 8.0 13.0 0.00 1.34 0.00 44 1020.3
20200330221118 70 298 12.0 0.0 0.00 0.00 0.00 45 1020.2
20200330220625 70 294 6.0 0.0 0.00 0.00 0.00 45 1020.4
20200330220536 70 313 6.0 11.0 0.00 1.34 0.00 46 1020.3
20200330220123 71 314 12.0 0.0 0.00 0.00 0.00 45 1020.2
20200330220018 70 285 10.0 11.0 0.00 1.34 0.00 45 1020.1
20200330215623 71 308 10.0 0.0 0.00 0.00 0.00 46 1020.3
20200330215531 70 298 5.0 11.0 0.00 1.34 0.00 45 1020.3
20200330215114 71 294 11.0 0.0 0.00 0.00 0.00 44 1020.3
20200330215017 71 274 8.0 11.0 0.00 1.34 0.00 45 1020.4
20200330214116 71 299 9.0 0.0 0.00 0.00 0.00 45 1020.4
20200330214028 71 287 7.0 10.0 0.00 1.34 0.00 45 1020.5
20200330213132 72 295 7.0 0.0 0.00 0.00 0.00 44 1020.6
20200330213118 71 315 8.0 9.0 0.00 1.34 0.00 45 1020.6
20200330212618 72 287 7.0 0.0 0.00 0.00 0.00 45 1020.6
20200330212502 72 271 5.0 8.0 0.00 1.34 0.00 44 1020.6
20200330212122 72 295 11.0 0.0 0.00 0.00 0.00 44 1020.7
20200330212018 72 303 7.0 8.0 0.00 1.34 0.00 45 1020.7
20200330211621 72 297 6.0 0.0 0.00 0.00 0.00 45 1020.8
20200330211129 72 302 4.0 0.0 0.00 0.00 0.00 45 1020.7
20200330211005 71 310 6.0 8.0 0.00 1.34 0.00 44 1020.7
20200330210623 72 298 8.0 0.0 0.00 0.00 0.00 43 1020.8
20200330210538 71 314 7.0 8.0 0.00 1.34 0.00 43 1020.6
20200330210117 72 303 11.0 0.0 0.00 0.00 0.00 44 1020.6
20200330205623 72 304 7.0 0.0 0.00 0.00 0.00 44 1020.8
20200330205515 71 298 4.0 9.0 0.00 1.34 0.00 44 1020.8
20200330205123 72 305 10.0 0.0 0.00 0.00 0.00 42 1021.0
20200330205002 71 295 8.0 9.0 0.00 1.34 0.00 42 1021.0
20200330204545 72 297 6.0 9.0 0.00 1.34 0.00 41 1021.0
20200330204132 72 294 13.0 0.0 0.00 0.00 0.00 41 1021.0
20200330204053 72 302 9.0 9.0 0.00 1.34 0.00 41 1021.0
20200330203619 72 295 5.0 0.0 0.00 0.00 0.00 41 1020.9
20200330203520 71 288 3.0 9.0 0.00 1.34 0.00 40 1021.0
20200330203123 72 297 11.0 0.0 0.00 0.00 0.00 40 1021.0
20200330202620 72 297 6.0 0.0 0.00 0.00 0.00 40 1020.9
20200330202513 71 289 7.0 9.0 0.00 1.34 0.00 41 1020.9
20200330202038 71 290 6.0 6.0 0.00 1.34 0.00 39 1021.1
20200330201617 71 305 7.0 0.0 0.00 0.00 0.00 42 1021.1
20200330201525 71 296 5.0 7.0 0.00 1.34 0.00 40 1021.1
20200330201134 71 290 8.0 0.0 0.00 0.00 0.00 42 1021.4
20200330201044 70 283 3.0 7.0 0.00 1.34 0.00 41 1021.4
20200330200524 71 297 5.0 7.0 0.00 1.34 0.00 40 1021.5
20200330200101 71 351 1.0 0.0 0.00 0.00 0.00 40 1021.6
20200330195613 71 305 3.0 0.0 0.00 0.00 0.00 41 1021.8
20200330195133 71 283 7.0 0.0 0.00 0.00 0.00 42 1022.0
20200330195050 71 295 6.0 8.0 0.00 1.34 0.00 41 1021.9
20200330194623 71 288 7.0 0.0 0.00 0.00 0.00 42 1022.0
20200330194517 70 289 4.0 6.0 0.00 1.34 0.00 42 1022.0
20200330194111 70 330 6.0 0.0 0.00 0.00 0.00 44 1022.0
20200330193615 70 295 5.0 0.0 0.00 0.00 0.00 43 1022.2
20200330193523 69 293 3.0 6.0 0.00 1.34 0.00 43 1022.0
20200330193118 69 277 4.0 0.0 0.00 0.00 0.00 44 1022.2
20200330192625 69 292 4.0 0.0 0.00 0.00 0.00 44 1022.2
20200330192538 68 294 6.0 6.0 0.00 1.34 0.00 45 1022.1
20200330192114 69 295 8.0 0.0 0.00 0.00 0.00 44 1022.3
20200330192016 68 293 5.0 5.0 0.00 1.34 0.00 44 1022.4
20200330191619 68 282 2.0 0.0 0.00 0.00 0.00 45 1022.4
20200330191111 68 285 3.0 0.0 0.00 0.00 0.00 45 1022.6
20200330191020 68 267 1.0 3.0 0.00 1.34 0.00 45 1022.6
20200330190619 68 299 11.0 0.0 0.00 0.00 0.00 45 1022.7
20200330190502 68 308 2.0 4.0 0.00 1.34 0.00 46 1022.7
20200330190111 68 292 3.0 0.0 0.00 0.00 0.00 44 1022.9
20200330190024 67 287 2.0 4.0 0.00 1.34 0.00 44 1022.8
20200330185620 67 289 3.0 0.0 0.00 0.00 0.00 45 1022.9
20200330185509 67 304 2.0 5.0 0.00 1.34 0.00 46 1023.0
20200330185134 66 307 1.0 0.0 0.00 0.00 0.00 46 1023.0
20200330185044 66 307 2.0 5.0 0.00 1.34 0.00 45 1023.0
20200330184614 66 296 5.0 0.0 0.00 0.00 0.00 45 1023.0
20200330184600 65 289 2.0 6.0 0.00 1.34 0.00 45 1023.0
20200330184121 66 311 6.0 0.0 0.00 0.00 0.00 44 1023.1
20200330184018 65 322 4.0 6.0 0.00 1.34 0.00 45 1023.1
20200330183629 66 298 4.0 0.0 0.00 0.00 0.00 45 1023.1
20200330183124 65 284 5.0 0.0 0.00 0.00 0.00 47 1023.1
20200330183019 64 309 1.0 3.0 0.00 1.34 0.00 46 1023.1
20200330182614 64 311 2.0 0.0 0.00 0.00 0.00 48 1023.1
20200330182113 64 299 2.0 0.0 0.00 0.00 0.00 50 1023.1
20200330182020 63 298 3.0 5.0 0.00 1.34 0.00 51 1023.1
20200330181623 63 304 6.0 0.0 0.00 0.00 0.00 51 1023.2
20200330181538 62 317 1.0 4.0 0.00 1.34 0.00 50 1023.2
20200330181116 62 312 2.0 0.0 0.00 0.00 0.00 51 1023.2
20200330180621 63 343 4.0 0.0 0.00 0.00 0.00 49 1023.3
20200330180534 63 0 3.0 4.0 0.00 1.34 0.00 48 1023.4
20200330180112 63 325 5.0 0.0 0.00 0.00 0.00 51 1023.4
20200330180049 63 309 2.0 4.0 0.00 1.34 0.00 52 1023.4
20200330175620 62 282 2.0 0.0 0.00 0.00 0.00 52 1023.5
20200330175124 62 345 2.0 0.0 0.00 0.00 0.00 51 1023.6
20200330175035 61 0 3.0 6.0 0.00 1.34 0.00 51 1023.5
20200330174615 61 298 2.0 0.0 0.00 0.00 0.00 54 1023.6
20200330174525 60 321 4.0 6.0 0.00 1.34 0.00 53 1023.5
20200330174126 60 313 3.0 0.0 0.00 0.00 0.00 55 1023.4
20200330173617 60 341 2.0 0.0 0.00 0.00 0.00 54 1023.4
20200330173115 60 332 3.0 0.0 0.00 0.00 0.00 56 1023.4
20200330173002 60 332 1.0 3.0 0.00 1.34 0.00 56 1023.4